Regional Weather Roundup
Issued by NWS Jackson, KY

Home | Current Version | Previous Version | Text Only | Print | Product List | Glossary Off
Versions: 1 2 3 4 5 6 7 8 9 10 11 12 13 14 15 16 17 18 19 20 21 22 23 24 25 26 27 28 29 30 31 32 33 34 35 36 37 38 39 40 41 42 43 44 45 46 47 48 49 50

000
ASUS43 KJKL 210710
RWRJKL

EAST KENTUCKY HOURLY WEATHER ROUNDUP
NATIONAL WEATHER SERVICE JACKSON KY
200 AM EST TUE NOV 21 2017

NOTE: "FAIR" INDICATES FEW OR NO CLOUDS BELOW 12,000 FEET WITH
NO SIGNIFICANT WEATHER AND/OR OBSTRUCTIONS TO VISIBILITY.

* THESE REPORTS ARE NOT UNDER NWS QUALITY CONTROL AND MAY NOT
  REPORT WEATHER SUCH AS PRECIPITATION AND FOG.

KYZ079-080-083-085-087-088-110-112-115-119-120-210800
...EASTERN KENTUCKY...

CITY           SKY/WX    TMP DP  RH WIND       PRES   REMARKS
JACKSON        CLEAR     42  19  39 VRB5      30.05F
LONDON         CLOUDY    31  24  75 CALM      30.07F
SOMERSET*      CLOUDY    37  28  70 S5        30.09S WCI  34
MONTICELLO*    CLEAR     46  31  55 S9G26     30.08F
WILLIAMSBURG*  CLOUDY    30  27  86 CALM      30.08F
MIDDLESBORO*   CLOUDY    29  27  94 CALM      30.12S
HARLAN APT*    CLOUDY    32  27  80 CALM      30.09S
PIKE CO APT*     N/A     40  22  49 S3        30.06F
BIG SANDY APT* SUNNY     39  22  49 S3        30.07S
MOREHEAD APT*  SUNNY     39  21  48 S8        30.05S WCI  34
$$

KYZ035-036-041-042-044-050-067-078-099-210800
...CENTRAL KENTUCKY...

CITY           SKY/WX    TMP DP  RH WIND       PRES   REMARKS
MT STERLING*   CLEAR     39  23  52 SW10      30.04F WCI  32
DANVILLE*      PTCLDY    37  25  60 S6        30.05S WCI  33
LEXINGTON      CLOUDY    39  24  55 S13       30.01F WCI  31
FRANKFORT      CLEAR     37  23  56 S8        30.00F WCI  31
LOUISVILLE     PTCLDY    45  23  42 SW8       30.00S
LEBANON*         N/A     45  23  42 S16       30.02F
GLASGOW*       CLEAR     38  25  58 S3        30.05S
BOWLING GREEN  CLEAR     32  27  81 CALM      30.04F
$$

KYZ091>093-OHZ055-061-077-WVZ005-015-034-035-042-210800
...SOUTHERN OHIO/WEST VIRGINIA...

CITY           SKY/WX    TMP DP  RH WIND       PRES   REMARKS
COVINGTON      PTCLDY    36  25  64 S9        29.96F WCI  29
COLUMBUS       CLEAR     38  24  57 S8        29.96S WCI  32
DAYTON         CLEAR     38  25  59 SW16      29.93S WCI  29
WILMINGTON     CLEAR     36  26  67 S12       29.95F WCI  28
HUNTINGTON     CLEAR     31  22  69 S5        30.04F WCI  26
CHARLESTON     CLEAR     28  24  85 CALM      30.06F
PINEVILLE*       N/A     27  25  92 MISG      30.15S
BECKLEY        CLEAR     39  18  42 SE9       30.08F WCI  33
BLUEFIELD      CLOUDY    37  17  44 E5        30.10F WCI  33
LOGAN CO APT*    N/A     43  19  39 CALM      30.06F
$$

VAZ002-007-008-TNZ017-027-036-066-071-210800
...SOUTHWEST VIRGINIA/EAST TENNESSEE...

CITY           SKY/WX    TMP DP  RH WIND       PRES   REMARKS
WISE*          CLOUDY    43  23  45 S9        30.08F
JONESVILLE*      N/A     25  25 100 CALM      30.15S
ABINGDON*      CLOUDY    35  23  61 E9        30.11S WCI  28
BRISTOL        CLOUDY    27  23  85 CALM      30.12F
MORRISTOWN*    SUNNY     32  25  74 CALM      30.12S
SEVIERVILLE*   SUNNY     28  28 100 CALM      30.14S
KNOXVILLE      MOCLDY    33  31  92 E3        30.13S
LAFOLLETTE*    SUNNY     28  28 100 CALM      30.14F
OAK RIDGE      CLOUDY    32  30  92 CALM      30.15S
CROSSVILLE     CLOUDY    44  29  55 VRB7      30.10F
NASHVILLE      CLEAR     39  27  62 SE5       30.07F
$$

...KEY TO REMARKS...
VSB - VISIBILITY IN MILES
WCI - WIND CHILL INDEX
HX  - HEAT INDEX

$$



USA.gov is the U.S. government's official web portal to all federal, state and local government web resources and services.